Location: Chisholm
(54.9102°N, 114.1701°W)
Time: 11:25:43
(UTC+00:00)

N. Korean satellite - Pass Details

Date: 03 December 2021
Orbit: 447 x 491 km, 97.3° (Epoch: 23 January)

Event Time Altitude Azimuth Distance (km) Brightness Sun altitude
Rises 13:06:53 0° 14° (NNE) 2,482 10.2 -20.8°
Reaches altitude 10° 13:08:56 10° 15° (NNE) 1,598 9.2 -20.5°
Maximum altitude 13:12:22 87° 106° (ESE) 458 6.3 -20.0°
Drops below altitude 10° 13:15:44 10° 194° (SSW) 1,575 9.1 -19.5°
Sets 13:17:45 0° 195° (SSW) 2,441 10.1 -19.2°
